Weather in Korsiki

Russia / Smolensk Oblast     53°28′07″N   32°51′45″E
temp.,
°C
wind,
m/s
gust,
m/s
humid.,
%
clouds,
%
prec.,
mm/h
press.,
hPa
HPBL,
m
10 may, mon
mon1000:00+3nw35805 0.0 102571
03:00+2nnw22814 0.0 102624
06:00+3nne22743 0.0 102827
09:00+9nne22521 0.0 1028368
12:00+13n34390 0.0 10281392
15:00+15nne34370 0.0 10271647
18:00+14ne35500 0.0 1026965
21:00+8ne33690 0.0 102734
11 may, tue
tue1100:00+6ene34750 0.0 102766
03:00+5ne35810 0.0 102882
06:00+4ne310790 0.0 1027200
09:00+11ne59600 0.0 1026515
12:00+16ne56573 0.0 1024755
15:00+19ne57550 0.0 1023984
18:00+18ne58675 0.0 1022984
21:00+13e49895 0.0 1023236
12 may, wed
wed1200:00+10se5118826 0.0 1024532
03:00+7e39950 0.0 1025222
06:00+6ese38925 0.0 1025229
09:00+12ese466478 0.0 1024714
12:00+15ene455399 0.0 10221525
15:00+10ne6890100 1.5 1020439
18:00+8se2394100 1.6 1017245
21:00+8ese4996100 3.5 1016420
13 may, thu
thu1300:00+7e4119799 0.0 1016436
03:00+8e4996100 0.3 1015461
06:00+8se51095100 0.5 1015662
09:00+9se698377 0.6 1016919
12:00+14sse6859100 0.2 10161634
15:00+17sse695140 0.2 10151939
18:00+17se586095 0.0 10141244
21:00+12ese3578100 0.0 101590
14 may, fri
fri1400:00+11ese3989100 0.0 1015178
03:00+12ese41291100 0.1 1013333
06:00+12e51487100 0.0 1012401
09:00+13ese61490100 1.3 1011575
12:00+18se6118195 1.4 10091085
15:00+18sse6108416 3.0 10081002
18:00+17s610830 2.4 10091003
21:00+13s369491 2.7 1009105